Lid_Strength_Index
10 10 10 10 10 9 10 10 10 10 10 10 9 9 8 7 6 5 3 1 1 1 1 1 1 1 1 1 1 2 2 3 5 3 3 3 3 2 3 3 4 3 4
11 11 11 10 10 11 11 11 10 10 10 10 9 9 8 8 7 7 6 5 4 3 1 1 2 1 2 1 1 2 2 2 3 4 2 2 3 3 3 3 5 6 5
12 11 11 11 13 13 13 12 12 12 11 11 10 10 9 9 8 8 7 7 6 5 4 3 1 1 2 2 2 2 2 2 2 3 3 2 2 1 4 6 5 6 7
13 13 14 14 14 15 14 14 14 13 13 12 12 12 11 11 10 9 9 8 8 7 7 6 5 4 3 1 2 2 2 2 2 3 3 3 2 5 5 7 9 11 8
15 16 16 16 16 16 15 15 15 14 14 14 13 12 12 11 11 12 11 11 10 9 8 8 7 7 9 7 5 3 2 2 3 3 4 3 4 9 8 5 6 4 8
17 17 17 17 17 17 17 17 16 16 16 15 15 15 14 14 13 12 12 12 11 11 10 9 8 8 7 7 7 7 6 4 3 3 3 4 4 3 5 5 5 6 9
17 16 17 17 17 16 16 16 16 16 16 16 15 15 15 14 13 12 12 12 11 11 10 10 9 9 9 8 8 8 8 7 6 4 3 3 3 2 3 5 6 5 6
17 17 17 17 17 16 16 16 16 16 16 15 14 14 14 13 13 12 12 12 12 11 11 10 10 9 8 8 8 8 7 7 5 4 2 2 1 1 1 2 4 4 5
17 17 17 17 17 17 17 17 16 16 16 16 15 15 15 14 14 13 13 13 12 12 11 10 10 9 9 8 8 9 8 7 6 6 5 5 4 4 3 1 4 7 6
18 18 18 18 18 18 18 17 17 17 17 16 16 15 15 16 14 14 13 13 13 13 12 11 11 10 9 9 9 9 10 9 8 8 7 6 5 4 5 3 2 5 5
19 19 19 19 19 18 18 18 18 18 18 18 17 16 16 15 15 14 13 14 14 14 13 13 12 11 11 11 10 10 10 9 9 9 9 8 8 6 5 3 2 2 4
20 21 21 20 20 19 19 19 19 18 19 18 18 17 16 16 15 15 14 13 13 14 14 13 13 12 12 11 11 11 10 10 11 11 10 9 9 8 7 5 4 2 2
22 23 22 21 20 20 20 20 20 19 19 19 19 19 18 16 16 15 15 14 14 15 14 14 13 13 12 12 12 11 12 12 12 11 11 10 9 8 8 7 6 5 4
23 23 22 22 22 21 21 20 20 20 20 20 20 20 19 18 17 16 16 15 15 15 15 15 14 14 13 13 13 12 12 12 12 11 11 9 9 9 9 7 7 6 7
24 24 23 23 23 23 22 22 21 20 20 21 20 20 20 20 18 16 16 16 16 16 16 15 16 15 15 15 14 13 12 11 11 11 10 10 10 9 9 7 7 7 8
26 25 24 24 24 23 23 23 21 20 20 19 19 19 19 18 17 16 16 16 15 15 18 19 19 18 17 16 15 14 13 11 10 10 10 10 10 9 9 8 7 7 8
27 26 25 25 25 25 25 25 25 23 21 20 20 19 19 19 18 17 17 16 16 17 21 21 21 20 20 19 18 17 17 15 14 10 9 9 9 9 8 8 7 7 8
28 28 27 26 25 25 25 25 25 26 26 25 23 22 20 19 19 18 17 18 22 22 22 22 22 22 21 21 21 19 19 17 16 16 11 9 9 8 9 8 8 8 9
29 27 27 26 26 26 26 26 26 26 26 26 25 24 23 22 21 19 19 22 23 22 21 21 20 20 20 19 19 19 19 18 17 16 15 10 8 8 8 8 8 8 8
27 28 28 27 27 27 27 27 27 27 27 27 26 26 24 23 22 23 22 22 22 21 21 20 20 19 19 19 19 19 19 18 17 15 15 15 8 8 9 9 8 8 9
28 28 28 28 28 28 27 27 27 27 26 25 24 23 20 22 25 24 24 23 22 21 20 20 20 20 19 19 20 20 20 20 19 19 18 17 15 10 9 8 8 8 8
28 27 28 28 28 27 27 27 26 26 25 25 25 23 21 24 25 25 24 23 22 21 21 21 21 21 21 21 22 21 21 21 21 20 20 19 17 15 9 8 9 8 9
27 28 28 27 27 27 27 26 26 25 25 25 25 25 24 25 25 26 26 25 24 23 22 22 23 22 21 21 21 21 21 21 20 20 20 19 17 17 12 9 9 9 9
27 27 27 26 27 27 27 26 26 26 26 26 25 25 25 25 26 27 27 26 25 25 24 23 23 24 23 22 21 21 19 19 18 18 16 17 17 15 12 9 9 9 9
26 26 26 27 27 27 27 27 27 26 26 26 26 25 25 25 26 26 26 27 26 26 25 25 25 23 23 22 20 19 18 18 17 17 16 15 15 13 11 9 9 9 9
25 26 26 26 27 27 27 27 27 27 27 26 26 26 26 26 26 26 26 27 27 26 27 26 25 24 24 20 19 18 17 17 16 16 16 17 16 12 10 9 9 9 9